Temperature
24 23 23 22 22 21 21 21 21 20 20 20 19 19 19 19 19 18 18 19 18 18 18 18 18 18 18 18 18 18 18 17 17 17 17 17 17 17 17 17 17 17 17
23 23 23 22 22 21 21 21 21 20 20 20 20 19 19 19 19 19 18 19 19 18 18 18 18 18 18 18 18 18 18 17 17 17 17 17 17 18 17 17 17 17 17
23 23 22 22 22 22 21 21 21 21 20 20 20 19 19 18 18 18 18 18 18 18 18 18 18 18 18 18 18 18 18 18 17 17 18 18 18 18 18 18 18 17 17
23 23 23 22 22 22 21 21 21 21 20 20 20 19 19 19 19 19 19 18 18 18 18 18 18 18 18 18 18 18 18 18 17 17 17 18 18 18 18 18 18 18 17
23 23 23 23 23 22 21 21 21 20 20 20 20 19 19 19 19 19 19 19 18 18 18 18 18 18 18 18 18 18 18 17 17 17 17 17 17 17 18 18 18 18 18
23 23 23 23 22 22 21 21 20 20 20 20 19 19 19 19 19 19 19 18 18 18 18 18 18 18 18 18 18 18 18 17 17 17 17 17 17 17 18 18 18 18 18
23 23 23 22 22 21 21 21 20 20 20 19 19 19 19 19 19 19 19 18 18 18 18 18 18 18 18 18 17 17 17 17 17 17 17 17 17 17 17 17 18 18 18
23 23 23 23 22 22 21 21 20 20 20 19 19 19 19 18 18 19 18 18 18 18 18 18 18 18 18 17 17 17 17 17 17 17 17 17 17 17 17 17 17 17 17
23 23 23 22 22 22 21 21 21 20 20 19 19 19 19 18 18 18 18 18 18 18 18 18 17 17 17 17 17 17 17 17 17 17 17 17 17 17 17 17 17 17 17
22 22 22 22 22 22 21 21 21 20 20 19 19 19 19 18 18 18 18 18 18 17 17 17 17 17 17 17 17 17 17 17 17 17 17 17 17 17 17 17 17 17 17
22 22 22 22 22 21 21 20 20 20 20 19 19 19 19 18 18 18 18 18 17 17 17 17 17 17 17 17 17 17 17 17 17 17 17 17 17 17 17 17 17 17 17
22 22 22 22 21 21 21 20 20 20 20 19 19 19 19 18 18 18 17 17 17 17 17 17 17 17 17 17 17 17 17 17 17 17 16 16 16 17 17 17 17 17 16
22 22 21 21 21 21 20 20 20 20 19 19 19 19 18 18 18 18 17 17 17 17 17 17 17 17 17 17 17 17 16 16 16 16 16 16 16 16 16 16 16 16 16
21 21 21 21 21 20 20 20 20 19 19 19 19 19 18 18 18 17 17 17 17 17 17 17 17 17 17 16 16 16 16 16 16 16 16 16 16 16 16 16 16 16 16
21 21 21 21 20 20 20 19 19 19 19 19 18 18 18 18 18 17 17 17 17 17 17 16 16 16 16 16 16 16 16 16 16 16 16 16 16 16 16 16 16 16 16
20 20 20 20 20 19 19 19 19 19 19 18 18 18 18 17 17 17 17 17 17 16 16 16 16 16 16 16 16 16 16 16 16 15 15 15 15 15 15 15 15 15 15
20 20 20 20 19 19 19 19 18 18 18 18 18 17 17 17 17 17 17 16 16 16 16 16 16 16 15 15 15 15 15 15 15 15 15 15 15 15 15 15 15 15 15
20 19 19 19 19 19 19 18 18 18 18 17 17 17 17 17 16 16 16 16 16 16 16 16 15 15 15 15 15 15 15 15 15 15 15 15 14 14 14 14 14 14 14
19 19 19 19 19 18 18 18 18 17 17 17 16 16 16 16 16 16 16 16 16 16 15 15 15 15 15 15 15 15 15 14 14 14 14 14 14 14 14 14 13 13 13
19 18 18 18 18 18 18 17 17 17 16 16 16 16 16 16 16 16 15 15 15 15 15 15 15 14 14 14 14 14 14 14 14 14 13 13 13 13 13 13 13 13 12
18 18 17 17 17 17 17 17 16 16 16 16 16 15 15 15 15 15 15 15 15 15 14 14 14 14 14 13 13 13 13 13 13 13 13 12 12 12 12 12 12 12 11
17 17 17 17 16 16 16 16 16 15 15 15 15 15 15 15 15 15 14 14 14 14 14 13 13 13 13 13 13 13 13 13 12 12 12 12 11 11 11 11 11 11 11
16 16 16 16 15 15 15 15 15 15 15 15 15 14 14 14 14 14 14 14 14 14 13 13 13 13 12 12 12 12 12 12 12 11 11 11 11 11 10 10 10 10 10
15 15 15 15 15 14 15 15 15 15 14 14 14 14 14 14 14 13 13 13 13 13 13 12 12 12 12 11 11 11 11 11 11 10 10 10 10 10 10 10 9 9 9
14 14 15 14 14 14 14 14 14 14 14 14 13 13 13 13 13 13 12 12 12 12 12 12 12 11 11 11 11 11 11 11 10 10 10 10 10 9 9 9 9 8 8
14 14 14 14 14 14 13 13 13 14 14 13 13 13 13 12 12 12 12 11 11 11 11 11 11 11 10 10 10 10 10 10 10 10 10 9 9 9 8 8 8 8 7
Wind_Speed
15 15 16 16 15 14 15 14 14 12 10 8 7 6 6 6 6 7 12 14 13 13 10 6 5 5 5 6 6 3 3 2 2 2 1 2 1 3 4 5 6 9 13
14 15 16 16 17 17 16 15 14 13 12 9 7 5 5 5 6 6 9 13 13 13 11 7 6 6 5 5 5 4 3 2 3 3 2 1 3 3 3 4 5 7 9
21 19 18 17 16 17 17 16 14 13 12 10 6 5 4 3 3 5 6 8 12 12 11 10 7 6 6 6 6 6 6 4 2 3 4 3 4 3 3 3 4 5 5
16 17 17 17 17 17 16 14 14 13 11 11 9 9 7 7 7 6 6 7 10 11 11 10 9 7 6 7 7 6 5 5 3 2 2 3 4 3 2 3 3 5 6
18 18 17 17 16 15 14 13 12 12 11 11 11 10 8 6 5 5 7 7 7 9 10 10 8 7 6 7 7 6 6 5 5 4 3 2 1 2 3 3 3 3 4
16 16 15 12 12 13 13 12 13 12 11 11 11 11 11 9 8 7 8 7 6 6 8 10 8 8 7 7 7 7 8 6 6 5 4 4 3 4 3 4 4 4 4
15 14 13 12 13 14 14 13 14 12 12 12 12 12 11 11 11 9 9 8 6 6 9 9 8 7 7 8 7 7 7 7 7 7 5 5 5 4 4 4 3 3 3
13 15 15 13 12 13 14 13 14 12 12 12 12 11 11 9 8 9 8 9 8 8 8 8 8 8 8 8 7 6 7 7 7 8 7 5 5 5 5 4 4 2 3
12 13 12 11 10 12 13 13 13 11 12 11 10 10 10 9 9 8 8 7 7 7 8 9 8 8 8 8 7 6 7 7 7 7 7 6 5 4 4 4 5 5 3
10 10 11 11 10 10 10 10 11 11 10 10 10 9 9 9 8 8 8 8 8 8 8 9 9 9 8 8 8 7 7 7 7 6 6 6 4 4 4 4 4 4 5
9 8 8 9 9 7 7 8 8 8 8 9 9 8 8 8 8 8 8 8 7 8 9 9 8 8 8 8 8 8 7 8 7 6 6 7 6 4 4 3 3 3 4
8 8 8 9 8 7 7 7 7 7 8 8 8 8 7 7 7 7 7 7 7 7 7 7 8 7 7 7 8 8 8 7 7 7 7 7 6 6 5 4 4 3 4
7 6 7 8 8 7 6 6 6 6 6 7 7 7 6 6 6 6 6 5 6 5 5 6 6 6 6 6 6 7 7 7 7 7 7 7 6 6 5 4 4 4 4
8 7 7 8 7 7 6 5 4 4 5 6 7 6 6 6 6 5 4 5 5 4 4 4 5 4 4 5 5 6 6 6 6 6 6 7 7 7 6 5 5 4 3
9 9 9 7 7 6 6 5 5 4 5 6 6 5 5 4 5 5 4 4 4 4 3 3 3 3 3 3 4 4 5 5 4 4 4 5 5 6 5 4 3 3 3
10 9 9 8 7 7 7 6 5 5 6 6 6 5 5 5 5 5 5 5 4 4 3 3 3 2 1 2 3 3 3 3 2 2 1 2 2 3 4 4 4 4 4
9 9 8 7 7 6 6 6 6 6 7 7 6 6 6 5 5 5 5 5 4 4 4 4 3 3 2 3 3 3 2 2 2 1 1 1 0 2 3 4 5 4 3
9 9 8 7 7 6 7 7 8 8 8 7 6 5 5 5 5 6 6 5 4 5 4 4 4 4 4 4 4 4 3 3 3 2 1 2 2 2 4 4 5 4 4
9 8 8 8 8 8 7 9 8 8 8 7 6 5 5 6 6 6 5 5 6 6 6 5 5 5 4 6 6 5 4 5 5 4 4 3 3 4 5 6 6 5 4
9 9 8 9 9 7 8 10 8 8 7 6 5 5 6 6 6 5 5 6 7 7 7 7 6 5 5 7 7 6 4 5 5 5 6 8 7 7 6 5 6 6 3
10 10 10 9 7 7 9 9 8 7 6 6 7 7 6 7 7 7 6 7 8 8 8 8 7 7 7 8 9 8 5 5 5 5 5 6 10 10 9 8 6 6 4
10 10 10 8 6 7 9 9 8 6 7 8 8 8 7 7 7 8 7 7 8 8 7 7 7 6 7 8 9 10 9 8 7 5 4 6 11 12 11 9 9 10 8
9 8 10 9 6 6 8 9 6 7 9 10 9 9 9 9 8 8 7 7 6 7 6 6 6 6 6 7 10 11 11 11 8 7 9 11 12 11 10 12 12 9 6
8 8 9 9 7 6 6 7 7 8 10 10 9 9 10 10 9 8 7 6 6 6 7 7 6 6 5 5 5 5 6 8 8 6 8 11 12 10 10 9 8 6 6
7 7 8 8 8 7 7 7 8 9 11 10 9 9 9 10 10 10 8 7 6 5 7 6 5 6 5 4 6 6 6 5 6 7 7 7 7 7 7 6 6 6 6
8 8 8 8 8 7 8 7 7 9 11 10 9 8 8 8 8 10 11 16 13 15 15 11 9 7 8 9 12 13 13 13 12 10 8 7 6 6 6 6 6 6 6
Wind_Direction
185 177 174 171 168 168 171 172 169 172 166 164 164 166 174 176 179 186 183 178 179 176 172 175 173 169 171 178 171 154 154 166 142 99 24 341 286 218 207 205 200 207 211
174 178 174 174 174 174 176 175 175 176 176 175 169 170 168 177 182 186 187 184 180 178 179 172 177 175 172 175 172 156 153 178 159 143 120 352 332 308 235 213 208 212 211
179 179 178 178 176 179 181 182 181 179 177 169 156 150 140 145 170 185 190 194 186 183 183 181 176 178 177 182 184 171 163 178 199 167 150 158 217 271 295 242 219 210 211
178 178 177 177 181 184 182 181 180 179 177 171 172 173 179 189 196 188 188 190 190 186 187 184 179 182 184 185 190 184 172 164 186 205 201 181 164 170 267 300 258 227 220
179 180 181 182 183 181 180 179 176 179 178 179 182 184 191 194 184 178 183 191 195 193 190 188 185 188 191 193 193 184 180 176 181 186 187 185 178 167 169 243 280 280 244
179 180 179 174 179 176 178 178 179 185 184 185 188 191 192 190 184 187 191 198 198 198 197 196 192 193 194 197 197 192 187 191 189 190 186 179 181 196 185 210 239 253 262
173 174 173 172 177 178 181 183 184 190 190 192 195 196 196 195 196 194 197 197 199 204 205 203 198 199 200 197 194 196 200 197 195 201 205 203 209 188 182 190 220 243 268
170 174 176 175 179 179 181 184 187 191 192 196 200 199 197 199 202 200 199 203 205 207 202 202 202 201 199 203 198 203 207 202 205 212 207 209 216 203 191 185 183 226 277
167 172 172 173 179 181 183 185 187 190 194 198 198 200 199 198 201 200 200 203 204 206 202 201 202 204 205 206 200 210 212 205 209 214 211 214 220 212 210 200 185 184 224
154 163 170 176 180 182 181 183 187 192 193 193 196 203 203 200 196 197 202 203 203 204 200 203 203 206 208 209 207 212 214 210 215 215 210 217 222 220 216 209 200 191 197
153 161 172 172 166 165 174 182 185 183 189 193 195 197 199 196 192 199 206 203 200 199 202 203 201 205 210 211 211 216 212 213 218 220 218 225 220 222 226 215 204 203 190
141 149 158 151 150 158 173 183 183 186 191 190 189 192 192 189 191 196 201 197 198 197 196 197 197 202 204 203 204 210 209 208 212 218 218 227 222 221 223 215 216 217 208
127 134 143 147 151 155 164 174 175 181 182 177 176 177 179 182 188 190 186 182 183 181 182 182 189 198 203 204 206 204 206 210 214 216 215 221 216 225 224 214 217 221 222
131 139 142 142 146 147 148 149 148 155 157 159 161 166 174 178 178 175 169 166 164 164 172 177 183 191 195 201 200 199 206 213 218 222 220 219 215 218 216 217 219 212 201
131 134 138 140 136 131 133 135 132 129 133 138 145 153 154 150 149 151 152 149 145 147 152 156 162 171 187 209 198 197 201 205 213 223 224 221 207 200 198 204 206 195 187
141 136 130 128 129 130 132 128 123 126 123 124 132 134 131 129 131 139 138 131 128 124 123 133 133 135 185 164 163 168 171 173 182 206 230 225 203 181 160 153 145 149 169
137 129 126 122 120 121 123 125 120 111 109 112 116 123 127 128 131 133 127 126 121 114 113 117 115 103 71 83 98 115 123 117 138 161 176 192 148 142 133 107 95 89 100
125 119 117 114 106 103 105 104 103 101 101 100 101 109 119 121 121 119 120 121 114 112 107 101 98 92 69 70 90 105 103 92 81 77 104 125 84 102 122 114 98 81 66
121 116 113 111 104 101 102 101 98 98 97 93 91 96 106 113 114 113 116 115 110 100 94 88 86 84 64 62 78 92 94 84 68 59 60 84 88 82 107 113 106 87 64
105 102 96 97 97 97 100 98 97 97 97 95 91 90 97 106 111 112 108 102 101 101 94 80 70 73 67 63 74 84 94 90 76 61 54 59 72 76 86 103 105 96 72
105 100 94 93 96 98 99 98 96 94 96 94 89 84 85 93 96 94 94 99 99 95 88 81 66 58 55 61 67 77 89 96 88 74 59 51 61 66 70 79 86 91 88
103 101 101 95 88 94 102 101 97 94 93 92 87 83 80 85 90 92 92 94 100 97 91 84 71 54 48 55 64 69 77 89 91 83 71 62 65 66 65 69 74 76 75
105 102 107 103 91 91 107 110 105 100 96 91 87 84 82 76 76 85 91 91 91 97 94 90 83 65 50 50 57 68 75 80 86 83 81 76 70 65 61 61 65 66 68
104 108 109 109 104 97 99 109 110 105 102 98 94 91 89 81 72 69 70 79 84 97 98 97 92 80 61 48 48 60 73 75 78 78 72 69 68 66 61 56 54 54 62
104 108 113 114 110 106 105 108 114 113 107 103 101 97 92 91 83 72 61 67 52 76 103 102 101 96 80 51 73 89 81 83 88 87 71 61 57 55 51 49 46 46 49
106 104 101 103 104 107 111 113 117 119 117 111 108 106 104 100 98 95 80 59 67 67 70 78 90 77 86 86 78 77 77 79 85 82 75 68 63 61 57 54 47 42 40
Height
1503 1508 1511 1515 1519 1523 1527 1530 1532 1536 1539 1541 1544 1546 1548 1551 1553 1555 1557 1559 1561 1563 1565 1567 1569 1571 1572 1574 1575 1577 1578 1579 1580 1581 1582 1583 1583 1583 1584 1584 1585 1585 1586
1501 1505 1509 1512 1516 1519 1523 1526 1530 1533 1536 1539 1542 1544 1547 1549 1551 1553 1555 1557 1558 1560 1562 1565 1567 1569 1570 1572 1573 1575 1576 1577 1578 1580 1580 1581 1582 1582 1582 1582 1583 1583 1584
1496 1500 1505 1508 1512 1516 1520 1523 1527 1530 1533 1536 1540 1543 1545 1547 1549 1550 1552 1554 1556 1558 1560 1562 1564 1566 1568 1569 1571 1573 1574 1575 1577 1578 1579 1579 1578 1579 1580 1580 1581 1581 1581
1493 1497 1501 1504 1508 1512 1517 1521 1524 1528 1531 1534 1536 1538 1540 1541 1543 1546 1548 1551 1553 1555 1557 1559 1561 1563 1565 1567 1569 1570 1571 1573 1574 1575 1576 1577 1577 1578 1577 1578 1579 1579 1579
1489 1493 1497 1500 1505 1509 1514 1518 1521 1525 1528 1531 1533 1535 1537 1539 1542 1544 1546 1548 1550 1552 1554 1557 1558 1560 1562 1564 1565 1567 1568 1570 1571 1572 1573 1574 1575 1575 1575 1575 1576 1576 1576
1486 1490 1494 1499 1503 1507 1511 1514 1518 1521 1524 1527 1529 1531 1533 1535 1538 1540 1542 1544 1547 1548 1551 1553 1555 1557 1558 1560 1562 1564 1565 1567 1568 1569 1570 1571 1572 1572 1573 1572 1572 1573 1573
1484 1488 1492 1496 1500 1504 1507 1511 1514 1518 1520 1523 1525 1527 1529 1531 1533 1535 1538 1540 1542 1544 1546 1549 1551 1553 1555 1557 1559 1560 1561 1563 1564 1565 1567 1568 1569 1569 1570 1570 1570 1570 1570
1481 1484 1488 1492 1496 1500 1504 1508 1511 1514 1516 1519 1521 1523 1525 1527 1529 1532 1534 1536 1538 1540 1542 1544 1547 1549 1551 1553 1555 1556 1557 1559 1560 1561 1563 1564 1565 1566 1566 1567 1567 1567 1567
1480 1482 1486 1490 1494 1498 1502 1505 1507 1510 1513 1515 1517 1519 1521 1523 1525 1528 1530 1532 1534 1536 1538 1540 1543 1545 1547 1548 1550 1551 1553 1554 1555 1557 1558 1559 1560 1561 1562 1563 1564 1565 1563
1479 1483 1486 1489 1493 1496 1499 1503 1505 1507 1510 1512 1514 1516 1517 1519 1521 1523 1525 1527 1529 1531 1533 1536 1538 1540 1542 1543 1545 1546 1548 1550 1551 1552 1554 1555 1556 1557 1558 1559 1559 1560 1560
1478 1482 1485 1489 1492 1495 1497 1501 1503 1505 1507 1509 1511 1513 1514 1516 1517 1519 1521 1523 1525 1527 1529 1531 1533 1535 1537 1538 1539 1541 1543 1544 1546 1547 1548 1550 1551 1552 1553 1554 1555 1555 1555
1477 1481 1484 1487 1491 1494 1497 1499 1501 1502 1504 1506 1508 1509 1511 1512 1514 1516 1518 1520 1521 1523 1525 1527 1529 1531 1532 1533 1534 1536 1537 1539 1540 1541 1543 1545 1547 1547 1549 1549 1550 1550 1551
1477 1480 1484 1487 1489 1492 1495 1497 1499 1500 1502 1503 1505 1506 1508 1510 1511 1513 1515 1517 1518 1520 1522 1523 1525 1526 1528 1529 1531 1532 1533 1535 1536 1537 1538 1540 1541 1542 1544 1544 1545 1545 1546
1477 1481 1484 1486 1489 1491 1494 1496 1497 1499 1500 1501 1502 1504 1506 1507 1509 1510 1512 1514 1515 1517 1518 1520 1522 1523 1525 1526 1527 1528 1529 1530 1531 1532 1534 1535 1536 1537 1539 1539 1540 1541 1541
1478 1481 1484 1486 1488 1491 1493 1495 1496 1497 1498 1499 1501 1502 1504 1506 1507 1509 1510 1511 1513 1514 1516 1518 1519 1520 1521 1522 1523 1525 1525 1526 1527 1528 1530 1530 1532 1533 1534 1535 1535 1536 1537
1479 1482 1484 1487 1489 1491 1492 1494 1495 1496 1498 1498 1500 1501 1503 1504 1506 1507 1509 1510 1511 1513 1514 1516 1517 1518 1519 1520 1521 1522 1522 1523 1524 1525 1525 1526 1527 1528 1529 1530 1531 1532 1533
1479 1481 1484 1487 1489 1491 1492 1494 1495 1496 1497 1498 1499 1500 1502 1503 1505 1506 1508 1509 1510 1512 1513 1514 1515 1516 1517 1518 1519 1519 1520 1520 1521 1521 1522 1523 1524 1525 1526 1527 1527 1528 1529
1479 1482 1485 1487 1489 1491 1493 1494 1495 1496 1497 1498 1499 1500 1502 1503 1505 1506 1507 1509 1510 1511 1513 1514 1514 1515 1516 1517 1517 1518 1518 1518 1519 1519 1520 1521 1521 1522 1523 1523 1524 1525 1526
1480 1482 1485 1488 1490 1492 1493 1494 1495 1496 1497 1498 1499 1501 1502 1503 1505 1506 1507 1509 1510 1511 1512 1513 1514 1515 1515 1516 1517 1517 1517 1517 1517 1518 1518 1519 1520 1520 1521 1521 1522 1523 1524
1481 1483 1486 1488 1490 1492 1494 1495 1495 1496 1498 1499 1500 1502 1503 1504 1505 1506 1507 1509 1510 1511 1512 1513 1514 1515 1515 1516 1516 1517 1516 1516 1516 1517 1517 1518 1518 1519 1519 1520 1521 1521 1522
1482 1484 1487 1489 1491 1492 1494 1495 1496 1497 1499 1500 1501 1503 1504 1505 1506 1507 1508 1509 1510 1511 1512 1513 1514 1515 1515 1516 1516 1517 1517 1516 1517 1517 1518 1518 1518 1519 1519 1520 1520 1521 1523
1483 1485 1487 1489 1491 1493 1494 1495 1496 1498 1499 1500 1502 1503 1505 1506 1507 1507 1508 1509 1510 1512 1513 1514 1515 1516 1516 1517 1517 1518 1518 1518 1519 1519 1519 1520 1520 1520 1521 1521 1522 1523 1523
1484 1486 1487 1490 1492 1493 1494 1495 1497 1498 1499 1501 1502 1504 1505 1507 1507 1508 1509 1510 1511 1512 1513 1515 1515 1517 1518 1518 1519 1520 1520 1521 1520 1521 1521 1522 1522 1522 1523 1523 1524 1524 1524
1485 1487 1489 1490 1492 1494 1495 1496 1497 1499 1500 1501 1503 1505 1506 1507 1509 1510 1511 1512 1513 1513 1514 1516 1517 1518 1519 1520 1521 1522 1523 1523 1523 1523 1524 1525 1526 1526 1526 1526 1526 1525 1525
1486 1488 1489 1490 1492 1494 1496 1497 1498 1500 1501 1502 1505 1506 1508 1509 1510 1511 1513 1514 1515 1516 1517 1518 1519 1520 1521 1523 1524 1524 1525 1525 1526 1526 1527 1527 1527 1527 1527 1527 1527 1527 1527
1488 1489 1490 1491 1493 1495 1497 1498 1500 1501 1502 1504 1506 1508 1510 1512 1513 1514 1515 1518 1519 1520 1521 1522 1523 1524 1525 1526 1527 1527 1528 1528 1529 1529 1529 1529 1529 1529 1529 1529 1529 1528 1528